Погода в Одаваре

Япония     35°15′06″N   139°06′42″E
темп.,
°C
ветер,
м/с
пор.,
м/с
влажн.,
%
обл.,
%
осадки,
мм/ч
давл.,
гПа
погр.,
м
17 июня, чт
чт1700:00+16св2294100 0.6 100782
03:00+16ссв2292100 0.9 100677
06:00+16ссв2393100 0.1 1007140
09:00+17св238795 0.4 1007327
12:00+21св236286 0.8 10061142
15:00+22всв236136 1.1 10051129
18:00+20ююв117634 0.5 1006117
21:00+17всв018651 0.8 100712
18 июня, пт
пт1800:00+16ссв0091100 0.0 100611
03:00+15зюз11949 0.0 100615
06:00+16юз119268 0.0 1006147
09:00+19юз238196 0.1 1005644
12:00+21юз2375100 0.4 1005922
15:00+21юз467592 0.8 1003970
18:00+18юз3891100 0.1 1004619
21:00+18юз3894100 0.3 1005683
19 июня, сб
сб1900:00+18юз3797100 0.3 1004525
03:00+18юз2698100 0.5 1003519
06:00+17юз2598100 1.3 1003380
09:00+17юз2498100 2.9 1003319
12:00+17зюз2397100 1.9 1003201
15:00+17зюз1398100 3.9 1002179
18:00+17зюз1198100 1.3 100273
21:00+16з1298100 1.8 1002143
20 июня, вс
вс2000:00+16сз1197100 1.3 100134
03:00+17ссв1197100 3.8 100048
06:00+17св2298100 1.3 100099
09:00+18всв2393100 1.4 1001305
12:00+21в2380100 0.1 1000710
15:00+20в2282100 0.2 1000532
18:00+20вюв228580 0.3 1001267
21:00+17ссв119674 2.5 100323
21 июня, пн
пн2100:00+18с1191100 0.7 100415
03:00+17с1188100 0.7 100411
06:00+18в119096 0.0 100558
09:00+20в2272100 0.2 1006616
12:00+22вюв3363100 0.3 10071040
15:00+20вюв2273100 0.3 1007557
18:00+19в12774 0.0 1009376
21:00+17всв11929 0.0 101119